Weather History for KCAE - February, 2013

Change the Weather History Date:

Wednesday, February 27, 2013

  Actual Average Record
Temperature  
Mean Temperature 52 °F 51 °F  
Max Temperature 64 °F 63 °F 84 °F (1997)
Min Temperature 40 °F 39 °F 17 °F (1968)
Degree Days  
Heating Degree Days 13 14  
Month to date heating degree days 458 450  
Since 1 July heating degree days 1703 2086  
Cooling Degree Days 0 0  
Month to date cooling degree days 0 0  
Year to date cooling degree days 25 1  
Growing Degree Days 2 (Base 50)    
Moisture  
Dew Point 37 °F    
Average Humidity 63    
Maximum Humidity 89    
Minimum Humidity 36    
Precipitation  
Precipitation 0.00 in 0.13 in 1.63 in (1984)
Month to date precipitation 5.51 3.48  
Year to date precipitation 6.72 7.06  
Sea Level Pressure  
Sea Level Pressure 29.80 in    
Wind  
Wind Speed 9 mph (WSW)    
Max Wind Speed 20 mph    
Max Gust Speed 23 mph    
Visibility 10 miles    
Events      
T = Trace of Precipitation, MM = Missing Value Source: NWS Daily Summary

Daily Weather History Graph

Daily Weather History Graph

Search for Another Location

Airport or City:

Trip Planner

Search our weather history database for the weather conditions in past years. The results will help you decide how hot, cold, wet, or windy it might be!

Date:

Astronomy

Feb. 27, 2013 Rise Set
Actual Time 6:55 AM EST 6:19 PM EST
Civil Twilight 6:30 AM EST 6:44 PM EST
Nautical Twilight 6:01 AM EST 7:13 PM EST
Astronomical Twilight 5:32 AM EST 7:42 PM EST
Moon 8:29 PM EST (2/27) 7:37 AM EST (2/27)
Length of Visible Light 12h 14m
Length of Day
11h 24m
Waning Gibbous, 96% of the Moon is Illuminated
Feb 27
Waning Gibbous
Mar 4
Last Quarter
Mar 11
New
Mar 19
First Quarter
Mar 27
Full

Hourly Weather History & Observations

Time (EST) Temp. Windchill Dew Point Humidity Pressure Visibility Wind Dir Wind Speed Gust Speed Precip Events Conditions
12:56 AM 44.1 °F 39.0 °F 41.0 °F 89% 29.75 in 7.0 mi WSW 9.2 mph - N/A   Scattered Clouds
1:56 AM 45.0 °F 40.6 °F 39.9 °F 82% 29.76 in 10.0 mi WSW 8.1 mph - N/A   Scattered Clouds
2:56 AM 44.6 °F 40.7 °F 37.4 °F 76% 29.76 in 10.0 mi WSW 6.9 mph - N/A   Partly Cloudy
3:56 AM 42.8 °F 40.1 °F 37.4 °F 81% 29.76 in 10.0 mi SW 4.6 mph - N/A   Clear
4:56 AM 43.0 °F 38.8 °F 37.9 °F 82% 29.78 in 10.0 mi WSW 6.9 mph - N/A   Overcast
5:56 AM 42.1 °F 37.1 °F 36.0 °F 79% 29.81 in 10.0 mi SW 8.1 mph - N/A   Mostly Cloudy
6:56 AM 39.9 °F 34.5 °F 35.1 °F 83% 29.82 in 10.0 mi WSW 8.1 mph - N/A   Mostly Cloudy
7:56 AM 42.1 °F 36.6 °F 36.0 °F 79% 29.86 in 10.0 mi WSW 9.2 mph - N/A   Mostly Cloudy
8:56 AM 46.0 °F 41.4 °F 37.0 °F 71% 29.86 in 10.0 mi WSW 9.2 mph - N/A   Mostly Cloudy
9:56 AM 50.0 °F - 37.0 °F 61% 29.86 in 10.0 mi WSW 6.9 mph - N/A   Mostly Cloudy
10:56 AM 53.1 °F - 36.0 °F 52% 29.86 in 10.0 mi West 10.4 mph 17.3 mph N/A   Scattered Clouds
11:56 AM 55.0 °F - 37.0 °F 51% 29.85 in 10.0 mi West 11.5 mph 18.4 mph N/A   Scattered Clouds
12:56 PM 59.0 °F - 37.0 °F 44% 29.84 in 10.0 mi WSW 13.8 mph 17.3 mph N/A   Scattered Clouds
1:56 PM 60.1 °F - 37.0 °F 42% 29.81 in 10.0 mi SW 11.5 mph 19.6 mph N/A   Scattered Clouds
2:56 PM 62.1 °F - 37.0 °F 39% 29.79 in 10.0 mi West 10.4 mph 18.4 mph N/A   Scattered Clouds
3:56 PM 63.0 °F - 35.1 °F 35% 29.78 in 10.0 mi West 17.3 mph 23.0 mph N/A   Scattered Clouds
4:56 PM 63.0 °F - 35.1 °F 35% 29.78 in 10.0 mi West 18.4 mph 21.9 mph N/A   Scattered Clouds
5:56 PM 60.1 °F - 37.0 °F 42% 29.79 in 10.0 mi West 8.1 mph - N/A   Scattered Clouds
6:56 PM 55.9 °F - 36.0 °F 47% 29.80 in 10.0 mi WSW 6.9 mph - N/A   Scattered Clouds
7:56 PM 52.0 °F - 37.0 °F 57% 29.80 in 10.0 mi WSW 5.8 mph - N/A   Scattered Clouds
8:56 PM 48.9 °F - 37.9 °F 66% 29.80 in 10.0 mi WSW 3.5 mph - N/A   Scattered Clouds
9:56 PM 46.0 °F 43.1 °F 37.0 °F 71% 29.81 in 10.0 mi SW 5.8 mph - N/A   Scattered Clouds
10:56 PM 51.8 °F - 37.4 °F 58% 29.80 in 10.0 mi SW 8.1 mph - N/A   Scattered Clouds
11:56 PM 48.9 °F - 39.0 °F 69% 29.80 in 10.0 mi WSW 9.2 mph - N/A   Scattered Clouds